Location: Biltmore Gardens
(41.6070°N, 83.4666°W)
Time: 15:12:13
(UTC+00:00)

Cosmos 2333 Rocket - Pass Details

Date: 14 July 2020
Orbit: 837 x 864 km, 70.8° (Epoch: 13 August)

Event Time Altitude Azimuth Distance (km) Brightness Sun altitude
Rises 01:47:54 0° 213° (SSW) 3,391 5.3 -7.1°
Reaches altitude 10° 01:50:22 10° 217° (SW) 2,464 4.6 -7.5°
Maximum altitude 01:55:57 61° 297° (WNW) 967 2.9 -8.3°
Drops below altitude 10° 02:01:38 10° 18° (NNE) 2,498 5.0 -9.1°
Sets 02:04:09 0° 22° (NNE) 3,442 5.6 -9.5°
